Location: Nairn
(57.5833°N, 3.8667°W)
Time: 01:29:19
(UTC+00:00)

Helios 1B rocket - Pass Details

Date: 07 August 2020
Orbit: 575 x 583 km, 98.1° (Epoch: 18 September)

Event Time Altitude Azimuth Distance (km) Brightness Sun altitude
Rises 00:40:44 0° 19° (NNE) 2,806 7.5 -16.0°
Reaches altitude 10° 00:42:59 10° 26° (NNE) 1,901 6.2 -15.9°
Maximum altitude 00:46:55 43° 99° (E) 813 3.1 -15.9°
Enters shadow 00:48:49 26° 156° (SSE) 1,160 3.5 -15.9°
